Regional Weather Roundup
Issued by NWS Glasgow, MT

Home | Current Version | Previous Version | Text Only | Print | Product List | Glossary On
Versions: 1 2 3 4 5 6 7 8 9 10 11 12 13 14 15 16 17 18 19 20 21 22 23 24 25 26 27
000
ASUS45 KGGW 180715
RWRGGW
HOURLY REGIONAL WEATHER ROUNDUP FOR NORTHEAST MONTANA
NATIONAL WEATHER SERVICE GLASGOW MONTANA
1200 AM MST THU JAN 18 2018

NOTE: "FAIR" INDICATES FEW OR NO CLOUDS BELOW 12,000 FEET WITH NO
SIGNIFICANT WEATHER AND/OR OBSTRUCTIONS TO VISISBILITY.

NORTHEAST MONTANA


CITY           SKY/WX    TMP DP  RH WIND       PRES   REMARKS
GLASGOW        CLOUDY    17  13  84 SE5       29.88F
PLENTYWOOD       N/A     18  16  92 E3G13       N/A
WOLF POINT     MOCLDY     8   3  80 W3        29.91F
JORDAN           N/A     36  26  67 W10       29.89F
WINNETT          N/A     28  23  81 SW3         N/A
SIDNEY         MOCLDY    14  10  84 S6        29.91F
GLENDIVE       PTCLDY    26  16  65 S6        29.92F
MALTA            N/A     15  14  95 E1          N/A
SCOBEY           N/A     19  10  68 CALM      29.84F

FORT PECK REPORTS


CITY           SKY/WX    TMP DP  RH WIND       PRES   REMARKS
FORT PECK        N/A     22  20  92 NW2         N/A

SOUTHEAST MONTANA


CITY           SKY/WX    TMP DP  RH WIND       PRES   REMARKS
BILLINGS       CLOUDY    41  22  46 W23       29.97F
MILES CITY     CLOUDY    25  18  74 S8        29.95F
BAKER          PTCLDY    33  22  63 W14       29.94F
LIVINGSTON       N/A    N/A N/A N/A MISG      30.04R

CENTRAL MONTANA


CITY           SKY/WX    TMP DP  RH WIND       PRES   REMARKS
HAVRE          CLOUDY    38  28  67 SW21      29.83F
LEWISTOWN      CLOUDY    40  28  62 SW14      29.92F
GREAT FALLS    CLOUDY    40  25  55 SW17      29.92S
CUT BANK       CLOUDY    37  28  70 E9        29.80F
HELENA         MOCLDY    19  16  88 NE5       30.04F
BUTTE          CLOUDY    20  13  74 NW6       30.09F
BOZEMAN        MOCLDY    19  14  81 NW5       30.10F

WESTERN MONTANA


CITY           SKY/WX    TMP DP  RH WIND       PRES   REMARKS
MISSOULA       CLOUDY    26  22  84 CALM      30.01F
KALISPELL      NOT AVBL

NORTH DAKOTA


CITY           SKY/WX    TMP DP  RH WIND       PRES   REMARKS
WILLISTON      PTCLDY    21  15  78 VRB3      29.89F
DICKINSON      PTCLDY    23  17  78 W7        29.89F
MINOT          CLEAR     31  19  61 SW17      29.82F
BISMARCK       MOCLDY    28  21  75 SW3       29.94F

SOUTHERN SASKATCHEWAN


CITY           SKY/WX    TMP DP  RH WIND       PRES   REMARKS
REGINA         PTCLDY    16  12  86 SW3       29.78F
ESTEVAN        PTCLDY    16  12  86 SW9       29.82F
SWIFT CURRENT  CLEAR     28  18  64 SW13      29.73F





USA.gov is the U.S. government's official web portal to all federal, state and local government web resources and services.